Regional Weather Roundup
Issued by NWS

Home | Current Version | Previous Version | Graphics & Text | Print | Product List | Glossary Off
Versions: 1 2 3 4 5 6 7 8 9 10 11 12 13 14 15 16 17 18 19 20 21 22 23 24 25 26 27 28 29 30 31 32 33 34 35 36 37 38 39 40 41 42 43 44 45 46 47 48 49 50

000
ASUS43 KLOT 211308
RWRIL

ILLINOIS REGIONAL WEATHER ROUNDUP
NATIONAL WEATHER SERVICE CHICAGO/ROMEOVILLE IL
800 AM CDT THU SEP 21 2017

NOTE: "FAIR" INDICATES FEW OR NO CLOUDS BELOW 12,000 FEET WITH NO
SIGNIFICANT WEATHER AND/OR OBSTRUCTIONS TO VISIBILITY.

* THESE STATIONS ARE NOT UNDER NWS QUALITY CONTROL. THEY ALSO MAY NOT
  REPORT WEATHER SUCH AS PRECIPITATION OR FOG.

ILZ001-002-007-009-015-016-024-211400-
NORTHWEST ILLINOIS

CITY           SKY/WX    TMP DP  RH WIND       PRES   REMARKS
MOLINE         CLOUDY    75  60  59 SW15      29.95F
STERLING*        N/A     69  65  86 NE10      29.96R
SAVANNA*       CLOUDY    68  64  88 NE3       29.96R
$$

ILZ003-004-008-010-011-017-018-211400-
NORTH CENTRAL ILLINOIS

CITY           SKY/WX    TMP DP  RH WIND       PRES   REMARKS
ROCKFORD       CLOUDY    70  68  93 SE6       30.01R
FREEPORT*      CLOUDY    66  65  97 SE8       30.02R
ROCHELLE*      CLOUDY    69  65  88 CALM      29.99F
DE KALB*       CLOUDY    71  69  94 S3        30.02R
PERU*          CLOUDY    71  64  78 S8        29.99S
$$

ILZ005-006-012>014-019>023-211400-
NORTHEAST ILLINOIS

CITY           SKY/WX    TMP DP  RH WIND       PRES   REMARKS
CHICAGO-OHARE  CLOUDY    76  68  76 S6        29.99R
CHICAGO-MIDWAY CLOUDY    75  69  81 SW7       30.01R
AURORA         CLOUDY    72  70  93 CALM      30.01R
LANSING*       CLOUDY    74  71  92 SW3       30.02R
JOLIET*        CLOUDY    74  72  93 CALM      30.02R
WAUKEGAN       CLOUDY    74  70  87 S3        29.99R
DUPAGE AIRPORT MOSUNNY   72  70  93 S6        30.00R FOG
KANKAKEE*      MOSUNNY   73  70  90 CALM      30.03R
WHEELING       PTSUNNY   76  71  85 S5        30.00R
MORRIS*        PTSUNNY   71  69  93 NE3       30.00R FOG
ROMEOVILLE*    PTSUNNY   71  69  93 CALM      30.02R
NORTHERLY ISL    N/A     75  67  76 S5          N/A
$$

LMZ740>746-211400-
SOUTHERN LAKE MICHIGAN

STATION/POSITION SKY/WX   TEMP    WIND        PRES    VSBY  WAVE
                          AIR SEA DIR/SP/G                  HT/PER
                          (F)     (DEG/KT/KT) (MB)    (MI)  (FT/S)
SOUTHERN BUOY              70 69  200/  8/ 10 1015.0          1/ 3
WILMETTE HARBOR            71 70  170/  6/  8   N/A           1
HARRISON CRIB              75     190/ 10/ 10   N/A
CALUMET HARBOR             74     220/  4/  8 1015.6R
BURNS HARBOR               74     180/  7/ 10 1016.6R
MICHIGAN CITY              74     150/  9/ 12   N/A
MICHIGAN CITY 6N           71 69  180/  6/  8   N/A           1
ST. JOSEPH                 71 69  200/  6/  8 1016.2          1
$$

ILZ025>027-034>036-040-047-049-050-058-095>099-211400-
WEST-CENTRAL ILLINOIS

CITY           SKY/WX    TMP DP  RH WIND       PRES   REMARKS
QUINCY         CLOUDY    74  67  78 E10       30.02R
GALESBURG*     CLOUDY    69  65  86 SW6       30.03S
MACOMB*        CLOUDY    68  66  92 NW3       30.05R
JACKSONVILLE*  CLOUDY    71  69  92 CALM      30.02S
PITTSFIELD*    CLOUDY    73  71  95 NE5       30.04R
$$

ILZ028>032-037-038-041>044-048-051>054-059>061-211400-
CENTRAL ILLINOIS

CITY           SKY/WX    TMP DP  RH WIND       PRES   REMARKS
PONTIAC        CLOUDY    74  73  99 SW3       30.02R
BLOOMINGTON    CLOUDY    73  71  93 S7        30.04R
DECATUR        CLOUDY    74  70  87 SW3       30.04R
PEORIA         CLOUDY    72  67  84 W5        30.03R
LACON*         CLOUDY    71  65  81 S3        30.00R
LINCOLN*       CLOUDY    72  72  99 CALM      30.03R FOG
SPRINGFIELD    CLOUDY    74  71  91 S3        30.03R
TAYLORVILLE    PTSUNNY   72  71  96 CALM      30.04R
$$

ILZ033-039-045-046-055>057-062-063-211400-
EAST-CENTRAL ILLINOIS

CITY           SKY/WX    TMP DP  RH WIND       PRES   REMARKS
CHAMPAIGN      PTSUNNY   75  70  84 SW7       30.05R
RANTOUL*       MOSUNNY   73  71  94 CALM      30.05R FOG
MATTOON        CLOUDY    74  72  93 S9        30.04R
PARIS*           N/A     72  71  96 SE3       30.06R
$$

ILZ079-100>102-211400-
SOUTHWEST ILLINOIS

CITY           SKY/WX    TMP DP  RH WIND       PRES   REMARKS
ALTON          PTSUNNY   72  70  94 S6        30.02R
BELLEVILLE     SUNNY     72  68  87 S2        30.04R
CAHOKIA*       MOSUNNY   74  69  85 S3        30.01R
SPARTA*        MOSUNNY   74  70  89 S9        30.04R
$$

ILZ064>066-069>071-074>076-080>082-084>086-088>090-092>094-211400-
SOUTH-CENTRAL ILLINOIS

CITY           SKY/WX    TMP DP  RH WIND       PRES   REMARKS
CARBONDALE     NOT AVBL
CAIRO*         SUNNY     71  71 100 CALM      30.05S
EFFINGHAM*     CLOUDY    74  73  98 SE3       30.06R
MARION         MOSUNNY   73  73 100 SE6       30.06R
MT. VERNON       N/A     73  71  93 CALM      30.06R
CENTRALIA*     SUNNY     75  73  93 SE6       30.04R
SALEM*         MOSUNNY   75  71  87 S5        30.05S
METROPOLIS*    SUNNY     71  70  98 CALM      30.07R FOG
$$

ILZ067-068-072-073-078-083-087-091-211400-
SOUTHEAST ILLINOIS

CITY           SKY/WX    TMP DP  RH WIND       PRES   REMARKS
LAWRENCEVILLE  SUNNY     72  71  97 SE3       30.07R FOG
FLORA*         SUNNY     73  71  95 S3        30.05S FOG
FAIRFIELD*     MOSUNNY   73  71  94 CALM      30.05R
HARRISBURG*    SUNNY     71  71  98 CALM      30.06R
ROBINSON*      SUNNY     70  70  99 CALM      30.07R FOG
CARMI*         SUNNY     72  72 100 CALM      30.06R FOG
$$

ABBREVIATIONS USED IN REMARKS
   TC - TEMPERATURE IN CELSIUS
  WCI - WIND CHILL INDEX
   HX - HEAT INDEX
  VSB - VISIBILITY
$$





USA.gov is the U.S. government's official web portal to all federal, state and local government web resources and services.